Wind_Speed
15 19 22 25 27 31 35 37 39 41 43 43 43 43 44 44 45 46 47 48 47 47 48 50 51 51 51 51 52 53 52 52 52 51 50 49 49 50 50 50 50 50 51
12 15 17 19 21 24 29 31 34 37 38 40 40 40 41 42 44 45 46 46 46 47 48 49 51 51 52 53 55 55 54 53 53 52 52 52 51 51 51 52 51 52 53
7 9 11 13 15 17 21 26 30 32 33 33 34 35 37 39 41 42 43 45 46 47 48 50 51 52 53 54 55 55 55 54 55 54 53 53 52 52 53 53 53 54 54
5 7 8 10 12 14 17 20 23 26 28 29 31 33 35 36 39 41 43 45 45 46 48 51 52 53 54 55 56 56 56 56 57 56 55 54 55 55 55 55 55 55 55
4 5 7 9 12 14 16 18 20 23 26 27 29 31 34 36 38 40 42 44 45 47 50 52 53 53 55 56 57 58 58 59 59 59 58 57 57 58 58 58 57 55 55
2 4 7 9 11 14 16 18 20 23 25 28 30 32 35 37 39 42 44 46 47 49 51 53 54 56 58 58 60 60 61 60 60 60 60 60 59 59 60 59 57 56 55
2 4 6 9 11 14 17 20 22 24 26 28 30 33 35 38 41 43 45 47 49 51 54 56 57 59 61 61 62 62 63 63 63 62 62 61 60 60 60 60 59 59 57
5 6 8 10 13 15 18 21 24 26 28 30 33 35 38 41 44 46 48 50 52 55 57 59 61 62 63 64 64 65 65 65 66 65 64 63 63 64 63 61 61 61 60
11 12 14 16 18 20 22 25 28 31 34 36 37 40 42 45 48 50 53 55 57 60 62 64 65 66 67 68 68 69 68 69 69 68 67 67 67 66 64 63 62 61 59
17 18 20 22 24 26 28 30 33 36 39 42 44 46 48 50 53 56 58 60 62 63 64 65 66 67 68 69 70 70 69 69 69 69 69 68 67 66 65 63 61 60 58
22 23 24 26 28 30 32 34 37 40 43 46 49 51 54 56 58 59 62 63 65 66 66 67 68 69 69 69 69 69 69 70 71 71 70 68 66 65 64 62 60 58 56
26 27 29 30 32 35 37 39 42 45 48 51 54 56 59 61 62 62 64 65 67 67 67 68 68 68 69 68 68 68 69 70 69 69 68 66 64 62 61 60 59 58 57
29 31 33 35 38 40 43 45 48 50 53 55 58 60 62 63 65 66 66 66 67 66 65 65 65 65 65 65 65 66 67 67 67 66 64 62 60 59 58 58 58 56 54
34 36 38 41 43 45 48 50 52 54 56 57 59 61 63 65 66 67 67 66 65 64 64 63 62 62 61 61 61 63 64 64 63 62 61 60 59 58 56 55 54 52 50
39 40 42 45 47 49 52 54 55 56 58 59 61 63 64 64 65 65 64 64 63 63 62 61 59 58 58 58 58 59 59 59 58 58 57 57 56 54 53 51 50 49 47
42 44 46 49 51 53 54 55 57 58 60 61 62 63 63 63 62 61 61 61 61 61 60 58 57 56 55 55 55 54 54 53 53 53 52 51 51 50 48 47 46 45 45
46 49 51 53 54 55 56 56 57 59 61 61 61 61 61 60 59 58 58 58 57 57 57 55 54 53 52 51 50 49 48 48 48 47 47 46 46 45 44 43 42 42 42
50 52 53 55 55 56 57 58 59 59 59 59 60 60 59 58 56 55 55 54 53 53 53 52 51 50 49 47 45 43 42 42 42 42 42 42 41 41 41 40 39 39 38
52 54 55 56 57 58 58 59 59 59 59 58 58 58 56 54 53 52 51 50 49 48 47 46 45 43 41 40 38 37 37 37 38 38 38 38 38 38 38 37 37 37 37
54 55 56 57 58 59 59 59 59 59 58 57 56 55 53 51 50 48 46 45 45 44 42 40 38 36 35 34 33 33 33 34 34 34 33 35 36 36 35 35 35 35 36
55 57 57 58 59 59 59 59 58 58 57 55 54 52 50 48 46 43 42 41 40 38 36 34 32 31 30 30 30 29 29 29 29 30 31 32 33 33 33 34 34 34 34
56 57 58 59 59 59 58 58 57 57 55 53 51 49 47 44 42 40 38 36 34 33 31 30 28 27 26 26 25 26 26 26 27 27 28 30 31 32 32 33 33 34 33
56 57 58 59 59 58 57 56 56 55 53 50 48 45 43 40 38 36 33 31 30 28 27 25 23 21 21 21 21 21 22 23 24 26 27 28 30 32 32 32 33 33 32
57 58 58 58 57 56 55 54 53 52 50 47 45 42 39 36 34 32 29 27 26 24 22 21 19 18 17 17 18 18 19 21 23 24 25 27 28 30 30 30 31 31 31
57 58 58 57 56 55 53 52 50 49 47 44 42 38 35 32 30 28 25 23 21 20 18 17 16 15 15 15 15 17 19 20 21 23 24 26 27 28 28 29 30 30 30
56 57 57 56 54 52 51 49 47 46 44 41 37 34 31 29 27 24 22 20 19 17 15 14 14 13 13 14 14 16 17 19 20 21 23 25 26 27 28 28 28 28 28
Wind_Direction
217 219 220 219 220 223 225 227 229 231 233 236 240 242 243 244 246 248 251 253 255 257 259 261 262 262 263 265 266 267 268 270 271 272 271 271 272 274 274 274 276 276 277
204 211 212 213 218 221 225 227 229 232 235 238 240 242 245 246 248 250 252 253 255 258 259 261 263 264 265 267 268 269 270 270 270 271 271 272 273 274 273 274 275 275 277
171 188 204 208 214 218 223 227 229 232 236 239 241 244 246 248 249 251 254 256 258 260 261 263 264 266 266 267 268 269 270 269 270 271 272 272 272 272 273 273 274 275 276
159 179 191 203 210 219 225 230 235 238 241 244 247 248 248 250 253 255 258 259 261 262 264 265 267 267 268 269 269 270 270 270 271 271 271 271 271 271 272 272 273 274 274
176 200 212 225 227 228 234 237 243 246 248 250 253 253 253 256 257 259 261 262 263 264 266 267 268 269 270 269 270 270 270 271 271 271 271 271 272 272 272 271 271 271 272
202 226 236 238 238 242 246 248 251 251 253 255 257 259 261 262 263 263 264 264 265 266 268 268 269 269 269 269 270 270 270 270 270 270 270 271 271 271 271 271 270 270 271
293 264 260 259 261 259 259 260 259 260 263 264 265 266 267 267 268 267 267 268 268 269 270 271 271 270 270 270 270 270 269 269 270 269 268 269 268 268 269 269 268 269 269
315 299 288 281 278 275 272 269 268 269 270 270 271 271 272 272 272 271 271 272 273 272 272 273 272 272 272 270 270 270 268 268 268 268 268 268 267 267 268 267 267 267 267
308 304 299 294 291 287 283 280 277 276 276 276 275 275 275 275 275 275 275 275 275 275 275 275 274 273 271 269 268 268 268 267 267 267 267 267 267 267 266 266 266 266 267
305 302 299 295 293 291 288 285 282 280 280 280 279 278 278 278 278 278 278 278 278 278 277 276 274 272 271 270 270 268 267 267 267 267 267 268 267 266 264 264 265 265 264
305 304 301 299 297 296 294 291 288 285 284 283 283 283 282 282 282 281 281 281 280 278 278 276 275 273 272 271 270 268 267 266 266 267 267 267 266 265 264 264 263 263 262
306 305 304 303 301 300 298 297 294 292 289 287 286 286 285 285 285 284 284 283 282 281 279 278 276 275 273 271 270 268 267 266 266 266 265 264 263 263 262 261 260 260 260
308 307 306 304 303 302 301 300 298 296 294 292 290 289 288 288 287 286 286 285 284 283 282 280 278 276 273 271 269 267 266 265 265 264 263 262 261 260 259 258 257 257 257
307 306 305 305 304 304 303 302 300 298 297 295 294 292 291 290 289 288 287 285 284 284 283 281 279 277 274 271 268 267 265 264 263 261 260 258 257 257 256 256 255 255 253
306 306 306 306 306 305 304 303 302 301 300 298 296 295 294 293 291 289 288 287 285 284 283 281 280 277 275 271 269 267 265 263 261 259 257 256 255 255 255 254 252 251 249
308 307 307 307 307 306 306 305 304 304 303 301 300 299 297 296 294 291 289 288 287 286 285 282 280 278 276 273 270 268 265 262 259 257 255 254 252 252 252 249 248 248 246
308 308 308 308 308 308 308 307 306 306 306 305 303 302 300 298 296 294 292 290 289 287 286 284 282 280 277 275 272 268 264 261 258 255 252 250 248 247 246 245 245 244 244
308 309 310 310 310 310 310 309 309 308 307 306 306 305 302 300 298 296 294 292 290 289 287 285 283 280 277 274 271 266 262 258 254 252 250 247 245 243 241 240 241 240 240
309 310 311 311 311 311 312 312 311 310 309 308 308 306 305 302 300 298 296 294 292 291 289 287 283 280 276 272 268 264 259 255 253 250 247 243 240 238 237 236 237 237 237
310 311 312 312 312 313 313 313 313 312 311 310 309 308 306 304 303 301 299 297 295 293 291 288 283 279 274 269 265 261 257 254 251 247 244 239 236 235 234 233 233 234 235
312 312 312 313 313 313 313 314 314 314 314 312 311 310 308 306 305 303 301 299 297 295 293 290 284 278 273 268 264 258 253 249 246 243 240 235 233 230 229 228 228 230 232
312 313 314 314 314 314 314 314 314 315 315 314 312 311 310 308 307 305 303 301 299 298 296 292 286 279 273 267 262 257 249 244 240 236 233 230 228 226 225 225 225 227 229
313 314 315 315 315 315 315 315 315 315 315 315 314 313 311 310 309 307 305 303 302 300 298 294 287 280 272 265 258 251 244 238 234 230 227 225 223 223 222 224 225 226 228
314 315 316 316 316 316 316 316 316 316 316 316 315 314 312 310 310 309 308 307 304 300 297 293 286 278 269 260 250 241 236 232 227 224 222 220 219 219 220 221 222 223 225
315 316 317 317 317 317 317 317 317 318 317 316 316 315 314 313 311 310 309 308 306 303 298 293 286 276 266 256 246 238 232 227 222 219 218 218 217 217 218 219 219 221 222
316 317 318 318 318 317 318 318 318 318 318 318 317 316 316 314 312 310 309 308 306 303 300 295 289 279 265 253 245 238 227 221 218 216 215 215 214 216 217 217 218 220 221
Height
5611 5615 5619 5623 5628 5633 5638 5644 5649 5655 5660 5665 5669 5673 5677 5680 5683 5685 5688 5690 5691 5693 5694 5695 5696 5697 5697 5698 5698 5698 5697 5697 5697 5699 5699 5699 5699 5699 5698 5698 5698 5698 5697
5612 5615 5619 5622 5626 5630 5635 5639 5644 5649 5654 5658 5661 5665 5668 5671 5673 5676 5678 5679 5681 5682 5683 5683 5684 5684 5685 5685 5685 5684 5684 5684 5684 5685 5685 5685 5685 5685 5685 5685 5685 5685 5684
5613 5616 5618 5621 5624 5628 5632 5636 5641 5644 5648 5652 5655 5657 5660 5662 5664 5666 5668 5669 5669 5670 5671 5671 5671 5671 5671 5671 5671 5671 5670 5670 5670 5670 5671 5671 5671 5671 5671 5671 5671 5671 5671
5615 5617 5620 5622 5625 5628 5631 5634 5637 5640 5643 5645 5648 5650 5651 5653 5655 5656 5657 5658 5658 5658 5658 5658 5658 5658 5657 5657 5657 5656 5656 5655 5655 5655 5656 5656 5657 5657 5657 5657 5657 5657 5657
5617 5618 5620 5622 5624 5627 5629 5631 5633 5635 5637 5639 5640 5642 5643 5644 5644 5645 5645 5646 5646 5646 5645 5644 5644 5643 5642 5642 5641 5641 5640 5640 5640 5640 5640 5640 5641 5641 5642 5642 5642 5642 5642
5618 5619 5620 5621 5623 5624 5625 5627 5628 5629 5631 5632 5633 5633 5633 5633 5633 5633 5633 5633 5632 5632 5631 5630 5629 5628 5626 5625 5624 5624 5624 5623 5623 5623 5623 5624 5625 5625 5625 5625 5625 5626 5628
5618 5618 5619 5619 5620 5620 5621 5622 5623 5623 5624 5624 5624 5623 5623 5622 5621 5621 5620 5619 5618 5617 5615 5614 5612 5610 5608 5607 5606 5606 5605 5605 5605 5605 5605 5606 5606 5607 5607 5608 5609 5610 5612
5618 5618 5617 5617 5616 5616 5616 5616 5616 5616 5616 5615 5614 5613 5612 5610 5608 5607 5606 5604 5602 5600 5598 5596 5594 5591 5589 5587 5586 5586 5586 5585 5585 5585 5586 5587 5587 5588 5589 5590 5591 5593 5595
5616 5615 5613 5612 5611 5610 5609 5608 5607 5606 5605 5604 5603 5601 5599 5597 5594 5591 5589 5587 5585 5582 5579 5576 5572 5570 5568 5566 5565 5566 5566 5565 5564 5564 5565 5566 5567 5568 5570 5572 5573 5576 5578
5612 5610 5608 5607 5605 5603 5601 5599 5598 5596 5594 5592 5590 5587 5585 5582 5578 5575 5571 5568 5565 5562 5558 5554 5550 5547 5545 5543 5542 5543 5543 5544 5543 5543 5544 5545 5546 5548 5550 5553 5555 5558 5561
5607 5605 5602 5599 5597 5594 5592 5589 5587 5584 5581 5578 5575 5571 5567 5563 5559 5555 5550 5546 5543 5539 5535 5532 5527 5524 5522 5520 5519 5518 5519 5520 5520 5521 5522 5524 5526 5528 5530 5534 5537 5540 5544
5601 5597 5594 5591 5588 5584 5581 5577 5573 5569 5565 5561 5557 5552 5547 5542 5538 5533 5528 5523 5518 5514 5511 5507 5504 5500 5498 5496 5495 5494 5494 5495 5496 5498 5500 5503 5505 5508 5511 5514 5518 5522 5526
5593 5589 5586 5582 5577 5573 5568 5563 5558 5553 5548 5542 5537 5532 5527 5521 5515 5510 5504 5499 5494 5489 5486 5482 5479 5476 5473 5472 5471 5470 5470 5471 5473 5476 5478 5482 5485 5489 5492 5496 5500 5505 5510
5585 5580 5576 5571 5566 5560 5554 5548 5542 5536 5530 5524 5518 5512 5506 5500 5493 5487 5482 5476 5471 5467 5462 5459 5455 5452 5450 5449 5448 5448 5447 5448 5450 5453 5458 5462 5465 5470 5474 5479 5483 5488 5494
5575 5570 5565 5559 5553 5547 5540 5533 5526 5519 5511 5505 5499 5492 5486 5480 5472 5465 5459 5455 5450 5445 5441 5437 5433 5430 5429 5427 5426 5426 5426 5427 5430 5434 5437 5442 5447 5451 5457 5462 5467 5473 5479
5565 5559 5553 5547 5540 5533 5525 5517 5508 5501 5493 5485 5477 5470 5463 5457 5450 5444 5439 5433 5428 5424 5419 5416 5413 5411 5408 5407 5406 5406 5407 5408 5411 5415 5419 5424 5429 5435 5440 5446 5452 5458 5465
5554 5547 5540 5533 5525 5518 5510 5502 5494 5485 5475 5467 5459 5451 5443 5436 5430 5424 5419 5414 5408 5403 5400 5397 5394 5391 5389 5387 5387 5387 5389 5391 5393 5397 5402 5407 5413 5419 5425 5431 5438 5444 5451
5541 5534 5527 5519 5511 5503 5494 5486 5477 5469 5461 5451 5442 5433 5425 5418 5411 5405 5400 5395 5390 5385 5381 5378 5375 5373 5371 5370 5369 5370 5372 5374 5378 5382 5387 5393 5399 5405 5412 5419 5425 5432 5438
5529 5521 5513 5505 5497 5488 5479 5470 5461 5452 5444 5435 5426 5417 5408 5401 5394 5388 5383 5378 5374 5370 5365 5361 5358 5356 5354 5354 5354 5355 5357 5360 5364 5369 5374 5380 5386 5393 5400 5407 5414 5420 5427
5515 5508 5499 5491 5482 5474 5465 5456 5446 5437 5428 5419 5410 5402 5394 5387 5380 5374 5368 5363 5359 5355 5351 5347 5344 5342 5341 5341 5342 5343 5346 5349 5353 5358 5363 5369 5375 5382 5389 5396 5403 5409 5416
5502 5494 5486 5477 5468 5459 5450 5441 5432 5423 5413 5404 5396 5387 5380 5373 5367 5361 5355 5350 5345 5341 5338 5335 5332 5331 5330 5330 5331 5333 5336 5339 5343 5348 5354 5359 5366 5372 5379 5386 5393 5399 5406
5489 5481 5472 5463 5454 5445 5435 5426 5417 5408 5399 5390 5382 5374 5366 5360 5354 5349 5344 5339 5334 5331 5327 5324 5322 5321 5320 5320 5322 5324 5327 5331 5335 5340 5345 5351 5357 5364 5370 5377 5384 5390 5397
5475 5467 5458 5449 5439 5430 5421 5412 5403 5394 5386 5377 5369 5362 5355 5349 5343 5338 5333 5329 5325 5322 5318 5316 5314 5312 5312 5312 5314 5316 5319 5323 5327 5332 5338 5343 5350 5356 5363 5369 5375 5382 5388
5462 5453 5444 5435 5426 5417 5408 5399 5390 5381 5373 5365 5358 5351 5344 5339 5334 5329 5325 5321 5318 5314 5311 5309 5307 5306 5306 5307 5308 5310 5313 5317 5321 5326 5331 5337 5343 5349 5356 5362 5368 5374 5380
5449 5440 5431 5422 5413 5404 5395 5386 5378 5369 5361 5354 5347 5341 5335 5330 5326 5322 5318 5314 5311 5308 5306 5304 5302 5302 5302 5302 5303 5305 5308 5312 5316 5321 5326 5332 5337 5343 5349 5355 5361 5367 5373
5436 5427 5418 5409 5400 5391 5383 5375 5366 5358 5351 5343 5337 5332 5327 5322 5318 5315 5312 5309 5306 5304 5302 5300 5299 5298 5298 5299 5300 5302 5304 5308 5312 5316 5321 5327 5332 5338 5344 5349 5355 5361 5367